Lihue, HI

9:21 AM HST on December 07, 2016 (GMT -1000)
Lihue

Weather History for PHLI - May, 2012

Change the Weather History Date:

Monday, May 7, 2012

  Actual Average Record
Temperature  
Mean Temperature 75 °F 75 °F  
Max Temperature 80 °F 80 °F 84 °F (1961)
Min Temperature 70 °F 70 °F 61 °F (1957)
Degree Days  
Heating Degree Days 0 0  
Month to date heating degree days 0 0  
Since 1 July heating degree days 0 0  
Cooling Degree Days 10 10  
Month to date cooling degree days 76 70  
Year to date cooling degree days 1130 974  
Growing Degree Days 24 (Base 50)    
Moisture  
Dew Point 65 °F    
Average Humidity 74    
Maximum Humidity 90    
Minimum Humidity 58    
Precipitation  
Precipitation 0.20 in 0.07 in 1.90 in (1982)
Month to date precipitation 0.49 0.55  
Year to date precipitation 32.24 14.32  
Snow  
Snow 0.00 in - - ()
Month to date snowfall 0.0  
Since 1 July snowfall 0.0  
Snow Depth 0.00 in    
Sea Level Pressure  
Sea Level Pressure 30.15 in    
Wind  
Wind Speed 17 mph (ENE)    
Max Wind Speed 23 mph    
Max Gust Speed 29 mph    
Visibility 10 miles    
Events Rain    
T = Trace of Precipitation, MM = Missing Value Source: NWS Daily Summary

Daily Weather History Graph

Daily Weather History Graph

Search for Another Location

Airport or City:

Trip Planner

Search our weather history database for the weather conditions in past years. The results will help you decide how hot, cold, wet, or windy it might be!

Date:

Astronomy

May. 07, 2012 Rise Set
Actual Time 6:01 AM HST 7:06 PM HST
Civil Twilight 5:37 AM HST 7:30 PM HST
Nautical Twilight 5:09 AM HST 7:58 PM HST
Astronomical Twilight 4:41 AM HST 8:27 PM HST
Moon 9:19 PM HST 7:29 AM HST
Length of Visible Light 13h 52m
Length of Day
13h 04m
Waning Gibbous, 95% of the Moon is Illuminated
May 7
Waning Gibbous
May 12
Last Quarter
May 20
New
May 28
First Quarter
Jun 4
Full

Hourly Weather History & Observations

Time (HST) Temp. Heat Index Dew Point Humidity Pressure Visibility Wind Dir Wind Speed Gust Speed Precip Events Conditions
12:01 AM 73.4 °F - 68.0 °F 83% 30.15 in 10.0 mi ENE 12.7 mph - N/A   Overcast
12:25 AM 73.4 °F - 66.2 °F 78% 30.15 in 10.0 mi ENE 15.0 mph - N/A   Mostly Cloudy
12:53 AM 72.0 °F - 68.0 °F 87% 30.14 in 2.5 mi ENE 16.1 mph 28.8 mph 0.02 in Rain Heavy Rain
1:05 AM 69.8 °F - 68.0 °F 94% 30.15 in 3.0 mi East 19.6 mph 28.8 mph 0.13 in Rain Heavy Rain
1:37 AM 71.6 °F - 68.0 °F 88% 30.14 in 8.0 mi ENE 18.4 mph - 0.18 in Rain Light Rain
1:53 AM 73.0 °F - 66.9 °F 81% 30.13 in 10.0 mi NE 18.4 mph - 0.18 in   Overcast
2:45 AM 73.4 °F - 66.2 °F 78% 30.13 in 10.0 mi ENE 19.6 mph - N/A   Overcast
2:53 AM 73.0 °F - 66.9 °F 81% 30.12 in 10.0 mi ENE 18.4 mph - N/A   Overcast
3:07 AM 73.4 °F - 68.0 °F 83% 30.13 in 10.0 mi ENE 16.1 mph - N/A   Overcast
3:53 AM 73.0 °F - 66.9 °F 81% 30.12 in 10.0 mi ENE 16.1 mph - N/A   Mostly Cloudy
4:53 AM 72.0 °F - 66.9 °F 84% 30.12 in 10.0 mi East 18.4 mph - N/A   Overcast
5:53 AM 73.0 °F - 66.0 °F 79% 30.13 in 10.0 mi ENE 17.3 mph - N/A   Overcast
6:04 AM 73.4 °F - 66.2 °F 78% 30.14 in 10.0 mi ENE 23.0 mph 27.6 mph N/A   Mostly Cloudy
6:53 AM 73.0 °F - 66.9 °F 81% 30.15 in 10.0 mi ENE 16.1 mph - N/A   Mostly Cloudy
7:53 AM 75.0 °F - 64.9 °F 71% 30.16 in 10.0 mi ENE 19.6 mph - N/A   Scattered Clouds
8:53 AM 75.0 °F - 64.0 °F 69% 30.16 in 10.0 mi ENE 19.6 mph - N/A   Overcast
9:53 AM 78.1 °F - 64.0 °F 62% 30.17 in 10.0 mi ENE 18.4 mph 26.5 mph N/A   Partly Cloudy
10:53 AM 79.0 °F - 63.0 °F 58% 30.18 in 10.0 mi NE 15.0 mph - N/A   Partly Cloudy
11:53 AM 79.0 °F - 63.0 °F 58% 30.17 in 10.0 mi NE 15.0 mph - N/A   Scattered Clouds
12:53 PM 80.1 °F 81.9 °F 64.9 °F 60% 30.17 in 10.0 mi NE 15.0 mph - N/A   Partly Cloudy
1:53 PM 75.0 °F - 64.9 °F 71% 30.15 in 10.0 mi NE 12.7 mph - 0.00 in Rain Light Rain
2:53 PM 79.0 °F - 64.0 °F 60% 30.13 in 10.0 mi NE 16.1 mph - 0.00 in   Partly Cloudy
3:53 PM 78.1 °F - 63.0 °F 60% 30.12 in 10.0 mi NE 15.0 mph - N/A   Clear
4:53 PM 78.1 °F - 63.0 °F 60% 30.12 in 10.0 mi NE 16.1 mph - N/A   Partly Cloudy
5:53 PM 75.9 °F - 63.0 °F 64% 30.12 in 10.0 mi NE 18.4 mph - N/A   Partly Cloudy
6:53 PM 73.9 °F - 63.0 °F 68% 30.13 in 10.0 mi NE 16.1 mph - N/A   Scattered Clouds
7:53 PM 73.9 °F - 63.0 °F 68% 30.15 in 10.0 mi ENE 15.0 mph - N/A   Partly Cloudy
8:53 PM 73.9 °F - 63.0 °F 68% 30.16 in 10.0 mi NE 13.8 mph - N/A   Partly Cloudy
9:53 PM 73.9 °F - 64.0 °F 71% 30.17 in 10.0 mi NE 16.1 mph - N/A   Mostly Cloudy
10:53 PM 73.9 °F - 63.0 °F 68% 30.18 in 10.0 mi ENE 18.4 mph - N/A   Overcast
11:53 PM 73.9 °F - 64.0 °F 71% 30.17 in 10.0 mi ENE 13.8 mph - N/A   Scattered Clouds